This is the latest recevied weather packets stored in our database for station/object OK2JCZ-6. If no packets are shown the sender has not sent any weather packets the latest 10 day(s).
| Time | Temp. | Humidity | Pressure | Rain* | Wind** | Luminosity | Snow |
|---|---|---|---|---|---|---|---|
| 1777615477 | 12.22° C | 42% | 1027.8 hPa | 0 mm | - | - | - |
| 1777615177 | 12.22° C | 41% | 1027.7 hPa | 0 mm | - | - | - |
| 1777614877 | 12.22° C | 43% | 1027.7 hPa | 0 mm | - | - | - |
| 1777614577 | 12.22° C | 44% | 1027.8 hPa | 0 mm | - | - | - |
| 1777613677 | 8.33° C | 47% | 1027.9 hPa | 0 mm | - | - | - |
| 1777613077 | 7.78° C | 48% | 1027.9 hPa | 0 mm | - | - | - |
| 1777612177 | 7.22° C | 49% | 1027.8 hPa | 0 mm | - | - | - |
| 1777611877 | 6.67° C | 50% | 1027.8 hPa | 0 mm | - | - | - |
| 1777611578 | 6.67° C | 50% | 1027.8 hPa | 0 mm | - | - | - |
| 1777611278 | 6.11° C | 51% | 1027.8 hPa | 0 mm | - | - | - |
| 1777609478 | 4.44° C | 51% | 1027.7 hPa | 0 mm | - | - | - |
| 1777609177 | 4.44° C | 51% | 1027.7 hPa | 0 mm | - | - | - |
| 1777608877 | 3.89° C | 50% | 1027.7 hPa | 0 mm | - | - | - |
| 1777608577 | 3.89° C | 51% | 1027.8 hPa | 0 mm | - | - | - |
| 1777608277 | 3.89° C | 50% | 1027.8 hPa | 0 mm | - | - | - |
| 1777607977 | 3.89° C | 50% | 1027.8 hPa | 0 mm | - | - | - |
| 1777607378 | 3.33° C | 49% | 1027.8 hPa | 0 mm | - | - | - |
| 1777607077 | 3.33° C | 49% | 1027.8 hPa | 0 mm | - | - | - |
| 1777606777 | 3.33° C | 49% | 1027.7 hPa | 0 mm | - | - | - |
| 1777605877 | 3.89° C | 49% | 1027.7 hPa | 0 mm | - | - | - |
| 1777604677 | 3.89° C | 50% | 1027.5 hPa | 0 mm | - | - | - |
| 1777604377 | 3.89° C | 50% | 1027.5 hPa | 0 mm | - | - | - |
| 1777604077 | 3.89° C | 50% | 1027.5 hPa | 0 mm | - | - | - |
| 1777603177 | 3.89° C | 50% | 1027.6 hPa | 0 mm | - | - | - |
| 1777602577 | 3.89° C | 50% | 1027.6 hPa | 0 mm | - | - | - |
* Rain latest hour (hover to see other rain measurements)
** Current wind speed in m/s (hover to see current wind gust speed)